TimeHST,TemperatureF,Dew PointF,Humidity,Sea Level PressureIn,VisibilityMPH,Wind Direction,Wind SpeedMPH,Gust SpeedMPH,PrecipitationIn,Events,Conditions,WindDirDegrees,DateUTC
12:55 AM,65.3,61.2,86,30.11,9.0,ENE,6.9,-,0.04,Rain,Light Rain,70,2013-02-24 10:55:00
1:14 AM,64.4,60.8,88,30.10,10.0,NE,6.9,-,N/A,,Mostly Cloudy,40,2013-02-24 11:14:00
1:30 AM,66.2,60.8,83,30.09,10.0,ENE,15.0,-,N/A,,Light Drizzle,60,2013-02-24 11:30:00
1:55 AM,64.8,60.3,85,30.09,10.0,NE,11.5,-,0.01,,Scattered Clouds,50,2013-02-24 11:55:00
1:56 AM,64.4,60.8,88,30.09,10.0,ENE,11.5,-,N/A,Rain,Light Rain,60,2013-02-24 11:56:00
2:18 AM,64.4,60.8,88,30.09,10.0,ENE,10.4,-,N/A,,Partly Cloudy,60,2013-02-24 12:18:00
2:41 AM,64.4,60.8,88,30.08,10.0,ENE,10.4,-,N/A,Rain,Light Rain,60,2013-02-24 12:41:00
2:50 AM,64.4,59.0,83,30.07,10.0,NE,9.2,-,N/A,,Mostly Cloudy,40,2013-02-24 12:50:00
2:55 AM,65.3,60.1,83,30.07,10.0,ENE,10.4,-,0.00,,Light Drizzle,70,2013-02-24 12:55:00
3:05 AM,66.2,59.0,78,30.07,10.0,ENE,6.9,-,N/A,,Mostly Cloudy,70,2013-02-24 13:05:00
3:55 AM,64.8,59.4,83,30.06,10.0,NE,5.8,-,0.00,,Scattered Clouds,50,2013-02-24 13:55:00
4:55 AM,64.2,58.1,80,30.06,10.0,ENE,10.4,-,N/A,,Partly Cloudy,60,2013-02-24 14:55:00
5:55 AM,64.4,57.9,79,30.07,10.0,ENE,9.2,-,N/A,,Partly Cloudy,60,2013-02-24 15:55:00
6:55 AM,65.3,57.4,76,30.08,10.0,ENE,6.9,-,N/A,,Partly Cloudy,70,2013-02-24 16:55:00
7:55 AM,67.3,57.4,70,30.09,10.0,ENE,8.1,-,N/A,,Mostly Cloudy,70,2013-02-24 17:55:00
8:55 AM,67.8,58.3,71,30.10,10.0,NE,5.8,-,N/A,,Overcast,40,2013-02-24 18:55:00
9:55 AM,68.9,59.4,72,30.11,10.0,NE,13.8,-,N/A,,Overcast,50,2013-02-24 19:55:00
10:55 AM,70.5,59.9,69,30.11,10.0,ENE,10.4,-,N/A,,Mostly Cloudy,60,2013-02-24 20:55:00
11:07 AM,71.6,60.8,69,30.11,10.0,NNE,10.4,-,N/A,,Light Drizzle,30,2013-02-24 21:07:00
11:16 AM,71.6,60.8,69,30.10,10.0,ENE,12.7,-,N/A,,Mostly Cloudy,60,2013-02-24 21:16:00
11:55 AM,72.0,60.1,66,30.09,10.0,ENE,16.1,-,0.00,,Scattered Clouds,60,2013-02-24 21:55:00
12:55 PM,73.0,59.7,63,30.06,10.0,ENE,12.7,-,N/A,,Partly Cloudy,70,2013-02-24 22:55:00
1:55 PM,72.3,60.6,67,30.05,10.0,NE,11.5,20.7,N/A,,Mostly Cloudy,50,2013-02-24 23:55:00
2:55 PM,71.4,59.9,67,30.03,10.0,NE,15.0,18.4,N/A,,Mostly Cloudy,50,2013-02-25 00:55:00
3:55 PM,71.8,59.9,66,30.03,10.0,ENE,11.5,18.4,N/A,,Overcast,70,2013-02-25 01:55:00
4:30 PM,69.8,60.8,73,30.04,10.0,NE,11.5,-,N/A,,Light Drizzle,40,2013-02-25 02:30:00
4:45 PM,69.8,60.8,73,30.04,10.0,Calm,Calm,-,N/A,,Mostly Cloudy,0,2013-02-25 02:45:00
4:55 PM,69.8,60.6,73,30.04,10.0,East,6.9,-,0.00,,Overcast,80,2013-02-25 02:55:00
5:44 PM,69.8,60.8,73,30.04,10.0,NE,11.5,-,N/A,,Light Drizzle,40,2013-02-25 03:44:00
5:55 PM,69.3,60.3,73,30.05,8.0,ENE,8.1,-,0.00,Rain,Light Rain,70,2013-02-25 03:55:00
6:07 PM,68.0,60.8,78,30.06,10.0,ENE,6.9,-,N/A,,Mostly Cloudy,70,2013-02-25 04:07:00
6:55 PM,68.4,59.2,72,30.07,10.0,NE,11.5,18.4,0.00,,Mostly Cloudy,50,2013-02-25 04:55:00
7:55 PM,68.4,59.2,72,30.09,10.0,NE,11.5,16.1,N/A,,Mostly Cloudy,50,2013-02-25 05:55:00
8:22 PM,68.0,59.0,73,30.10,10.0,NE,12.7,-,N/A,,Light Drizzle,50,2013-02-25 06:22:00
8:31 PM,68.0,59.0,73,30.10,10.0,NE,12.7,-,N/A,,Mostly Cloudy,50,2013-02-25 06:31:00
8:55 PM,68.0,58.8,72,30.10,10.0,NE,11.5,-,0.00,,Scattered Clouds,40,2013-02-25 06:55:00
9:55 PM,67.6,58.5,72,30.12,10.0,NNE,10.4,-,N/A,,Partly Cloudy,20,2013-02-25 07:55:00
10:55 PM,67.3,58.1,72,30.12,10.0,ENE,11.5,17.3,N/A,,Scattered Clouds,60,2013-02-25 08:55:00
11:47 PM,68.0,59.0,73,30.12,10.0,ENE,13.8,18.4,N/A,Rain,Rain,60,2013-02-25 09:47:00
11:55 PM,66.9,58.6,75,30.12,10.0,NE,11.5,18.4,0.00,Rain,Light Rain,40,2013-02-25 09:55:00
11:57 PM,66.2,59.0,78,30.12,10.0,NE,15.0,-,N/A,,Overcast,40,2013-02-25 09:57:00